SCP
4 4 6 7 8 7 7 7 7 7 6 5 4 4 4 4 4 4 5 5 5 6 8 10 10 7 4 2 2 2 1 1 1 1 1 1 1 1 1 1 1 1 2
4 5 6 7 7 8 7 7 7 6 5 5 4 4 4 4 4 4 5 5 5 6 7 10 10 8 4 3 2 2 2 2 2 2 1 2 2 2 1 1 1 2 2
5 7 7 7 8 8 7 7 7 6 5 4 4 4 4 4 4 5 6 6 7 7 7 9 10 8 5 3 3 2 2 2 2 2 2 2 2 2 1 1 1 1 1
7 8 8 8 8 7 7 8 8 6 5 5 5 4 4 4 5 5 6 7 8 7 7 9 10 8 5 3 3 3 3 3 2 2 2 2 2 2 1 1 1 1 1
8 8 8 8 8 7 7 8 8 7 7 6 6 5 5 5 5 5 6 8 8 8 8 8 9 8 5 3 3 3 3 3 2 2 2 2 2 1 1 1 1 1 1
8 9 9 9 8 7 7 8 8 9 8 7 6 6 5 5 5 5 6 8 8 8 8 7 7 7 5 4 4 4 4 3 2 2 2 1 1 1 1 1 1 1 1
10 11 11 10 8 7 7 8 9 10 8 6 5 5 5 4 4 5 6 7 8 8 7 7 6 6 5 4 4 4 4 3 3 2 2 1 1 1 1 1 1 1 1
11 11 10 9 8 7 7 8 10 9 7 5 4 4 4 3 4 5 6 6 6 6 7 7 6 6 5 4 4 4 4 3 3 2 2 2 1 1 1 1 1 1 1
9 8 7 6 6 7 7 8 9 7 5 4 4 3 3 3 4 5 6 6 5 6 6 6 6 6 5 4 3 3 4 3 3 2 2 2 2 2 1 1 1 1 1
6 6 5 5 5 6 7 8 8 6 5 4 4 3 3 4 4 5 6 5 5 6 6 6 7 6 5 4 3 3 3 3 3 2 2 2 2 2 2 2 1 1 1
4 4 5 5 4 5 6 7 7 6 5 5 4 3 3 4 5 5 5 5 5 6 7 7 7 6 4 3 3 2 2 2 2 2 2 2 2 2 3 2 2 2 2
4 5 5 5 5 5 6 7 7 6 5 5 5 4 4 5 5 5 5 5 5 6 6 6 6 5 4 3 3 2 2 2 2 2 2 2 2 3 3 3 2 2 2
6 6 7 8 8 7 7 7 6 5 5 5 5 5 5 6 6 6 6 7 7 6 6 6 5 4 3 3 3 2 2 2 3 3 2 2 2 2 3 2 2 2 2
8 9 10 11 9 8 8 7 6 5 5 5 6 6 6 7 8 8 8 8 8 7 6 6 4 4 3 3 2 3 3 3 4 4 4 3 2 2 2 2 2 2 2
10 12 12 11 9 8 8 8 6 6 6 7 7 6 6 7 8 8 8 9 9 8 7 5 4 3 3 2 2 3 3 4 6 6 5 3 2 1 1 1 2 2 2
13 15 16 12 9 8 8 9 8 8 9 8 7 6 6 7 7 7 7 8 8 8 6 5 4 3 3 2 2 3 5 7 8 9 7 3 1 1 1 1 1 1 1
16 20 21 16 11 9 9 9 9 10 10 9 7 6 7 7 7 7 7 8 7 6 5 5 4 4 3 3 3 3 6 10 12 12 9 4 2 1 2 2 1 1 1
18 20 21 17 11 9 9 9 9 10 10 9 7 7 8 8 8 8 8 7 6 5 5 4 4 4 4 4 3 3 7 12 15 15 10 4 2 1 2 3 3 3 3
16 16 14 12 10 9 10 10 10 10 9 8 7 8 9 9 8 8 8 7 6 6 5 5 4 5 5 5 4 4 8 13 16 15 9 4 2 2 2 3 4 5 5
14 12 9 8 9 10 11 11 11 10 9 8 8 9 10 9 8 7 7 6 6 6 5 5 5 5 6 5 3 4 9 13 14 11 6 3 1 1 2 3 4 6 7
14 12 9 9 9 10 11 11 10 10 10 9 10 9 9 8 7 7 6 6 6 5 5 5 5 6 6 5 3 3 7 11 11 7 4 2 2 1 1 2 4 6 7
13 12 10 10 9 8 8 8 8 9 10 10 10 9 8 7 6 6 6 7 6 6 5 5 6 7 7 5 3 2 3 6 6 4 3 2 2 1 1 1 3 4 5
11 11 10 9 8 6 6 6 7 8 9 9 9 8 7 6 5 5 6 6 6 6 6 6 8 10 10 6 3 2 1 2 2 2 2 2 1 1 0 1 2 3 5
9 9 8 7 5 5 5 6 6 7 8 8 7 7 6 5 5 5 5 5 5 5 6 7 8 10 10 7 4 3 2 2 1 2 2 1 1 1 1 1 2 4 6
8 7 6 5 5 4 5 6 7 7 8 7 6 5 4 4 4 4 4 4 4 4 5 6 7 6 5 5 5 4 4 3 2 2 2 2 2 2 2 3 3 5 7
7 7 6 6 5 5 5 6 7 8 7 7 5 4 4 4 4 4 3 2 2 2 3 5 6 4 3 3 3 4 4 4 2 2 2 2 3 3 3 4 5 6 6
Wind_Speed
13 11 11 11 11 9 8 7 6 5 4 3 3 3 2 2 2 3 4 3 2 2 2 1 1 1 1 1 1 1 2 2 1 0 0 1 2 3 2 2 2 3 4
13 12 11 11 11 10 9 7 6 6 5 3 2 2 2 2 2 2 3 4 3 3 3 2 2 2 1 1 1 1 1 2 1 1 0 0 0 1 3 3 3 3 3
15 14 12 11 11 11 10 8 7 6 5 4 3 2 2 1 1 2 2 3 3 3 2 2 1 1 1 2 2 2 2 2 1 1 0 0 1 1 1 3 2 3 3
14 14 13 12 11 11 10 8 7 6 5 5 4 3 3 3 2 2 2 3 4 3 3 3 2 2 1 2 3 2 1 2 2 1 1 1 1 0 0 1 1 2 2
12 14 14 13 11 11 11 9 7 6 5 5 4 4 3 2 2 2 2 2 3 3 3 4 3 3 2 2 2 1 1 1 1 1 1 1 1 1 1 1 1 0 1
11 11 12 11 10 11 10 10 8 6 6 5 4 4 3 2 1 1 2 3 3 3 4 4 3 3 2 2 2 2 2 2 1 2 2 1 1 1 1 1 1 1 1
10 11 11 11 10 10 10 9 9 8 7 6 5 4 3 3 2 2 2 3 2 2 3 3 3 3 3 2 2 2 2 2 2 2 2 2 1 1 1 1 1 1 1
8 10 10 10 11 11 9 9 9 8 7 6 4 3 3 3 2 3 2 2 2 1 2 3 3 3 2 3 2 2 2 1 1 2 2 1 2 1 1 1 1 1 1
9 9 9 10 10 10 10 10 10 8 6 6 4 3 3 3 2 2 2 2 2 1 2 2 2 2 2 2 1 1 1 1 2 2 2 1 1 1 1 1 1 1 2
8 9 9 9 9 9 9 9 8 7 6 6 5 5 4 3 2 1 1 1 1 1 1 2 2 2 2 1 1 1 1 1 1 1 1 1 1 1 2 2 1 1 2
9 9 9 9 9 9 9 8 8 7 6 5 5 3 4 3 2 1 1 1 1 1 1 1 1 1 1 1 1 1 1 1 1 1 1 1 2 2 2 1 1 1 1
9 9 10 9 8 8 8 8 7 7 6 5 4 3 2 2 2 1 1 1 1 1 1 1 1 1 1 1 1 1 1 0 0 0 1 1 1 1 2 1 1 0 1
8 9 8 8 7 7 6 7 6 6 6 6 5 4 3 2 2 1 1 0 0 1 1 1 1 1 1 1 2 1 1 1 1 1 1 1 1 1 1 1 1 0 1
7 8 8 7 7 6 6 6 6 5 5 5 4 4 3 2 2 1 1 1 1 1 1 0 1 1 1 1 1 2 2 2 1 2 2 2 2 2 1 1 1 1 1
8 8 8 7 7 7 6 5 5 5 4 4 3 3 3 2 2 2 2 1 1 1 1 1 1 1 1 0 1 1 2 2 2 2 2 3 5 6 4 2 2 2 1
8 9 8 7 7 6 6 5 4 4 4 4 3 3 3 2 2 2 2 2 2 2 1 2 2 2 1 3 3 2 2 2 2 2 2 2 3 4 5 6 6 4 3
7 8 8 7 6 5 5 5 5 4 4 4 3 3 3 3 2 2 2 3 2 2 1 2 2 3 3 4 4 3 2 2 2 2 2 2 3 4 3 5 5 6 6
7 6 7 7 6 6 5 5 5 5 4 4 3 2 2 3 3 3 2 2 2 2 2 2 3 3 3 4 4 3 3 3 3 3 3 3 3 3 3 4 5 5 4
7 6 7 8 6 6 6 5 5 5 4 3 3 2 3 3 3 2 2 2 2 2 2 3 3 3 3 5 3 2 2 3 3 3 4 3 4 5 5 3 3 3 3
7 6 6 7 6 5 5 5 5 5 4 3 3 3 3 3 3 3 2 2 2 2 3 3 3 2 3 4 4 2 1 2 2 3 4 7 5 5 4 3 2 2 2
8 8 7 6 6 5 5 5 5 5 4 4 4 4 3 3 3 3 2 2 2 2 3 3 2 3 3 4 4 3 1 2 2 2 3 4 5 5 5 3 2 1 0
8 8 7 6 6 6 6 6 5 5 5 5 4 4 3 3 3 3 2 2 2 2 2 2 2 2 3 4 4 4 3 3 2 3 3 3 4 5 4 2 2 2 1
6 7 7 7 6 5 4 5 4 4 5 5 4 3 3 4 3 3 3 2 1 1 2 2 2 2 2 3 5 5 4 3 3 3 5 4 3 3 2 1 1 1 1
5 5 7 6 5 4 4 4 4 4 5 5 4 3 3 4 3 2 2 2 2 1 1 1 2 2 2 2 2 2 2 3 3 3 3 2 1 0 1 1 0 0 2
5 5 5 5 5 3 2 4 4 4 4 4 3 3 3 4 4 5 5 4 4 3 1 1 1 1 2 1 1 2 1 1 2 2 1 1 2 2 1 1 1 1 1
4 4 4 5 5 4 3 3 3 4 4 3 3 2 3 3 3 4 5 9 6 6 7 5 3 4 4 4 4 4 4 4 3 1 1 1 1 1 1 1 1 1 1
Wind_Direction
162 160 162 158 153 150 153 160 166 161 164 171 184 197 194 192 185 172 167 175 189 175 167 201 190 232 164 162 187 196 247 253 255 295 53 235 197 171 171 192 180 179 176
161 162 164 163 160 158 160 162 170 169 179 182 189 198 188 202 187 180 165 180 189 192 193 192 211 200 182 183 245 259 273 271 222 229 225 234 273 251 200 187 188 179 162
167 166 169 170 168 165 169 173 173 170 180 186 189 205 183 225 198 164 175 192 197 199 202 189 224 235 215 180 216 229 236 262 273 212 182 175 224 247 228 198 182 163 167
167 168 170 173 175 172 171 165 166 172 180 188 194 200 198 201 199 192 186 189 197 202 191 196 201 234 242 203 226 211 242 243 273 282 254 221 153 186 300 271 185 172 175
168 169 173 174 176 173 169 165 163 170 177 189 192 202 212 210 198 183 171 193 200 207 205 190 198 214 232 240 239 169 245 262 266 286 284 279 237 215 194 246 277 248 201
164 161 164 164 172 172 169 165 161 165 171 184 192 199 212 220 223 212 181 200 200 206 211 193 194 213 220 224 224 226 239 248 272 292 296 279 259 242 211 236 253 243 241
157 155 159 163 169 169 167 162 159 166 173 183 195 197 211 215 214 230 214 221 217 201 194 197 183 205 212 221 223 226 243 243 251 261 271 284 276 254 209 211 253 274 265
152 154 160 160 166 167 163 160 158 166 175 181 189 195 196 213 218 219 234 231 241 218 165 178 187 203 214 223 211 231 243 224 251 265 263 270 273 276 229 199 205 278 290
151 156 155 156 161 164 163 164 160 164 172 175 178 187 190 214 231 206 210 239 255 240 165 178 194 203 217 231 218 228 253 239 234 253 254 250 261 266 272 235 198 208 259
150 142 142 147 151 157 160 161 158 160 166 172 184 183 189 201 219 244 224 234 272 294 140 173 182 197 217 218 220 231 227 239 248 254 295 290 285 258 249 242 232 215 215
147 140 137 144 149 152 154 153 152 156 164 169 176 177 173 186 187 195 288 271 262 267 240 207 203 203 203 212 216 218 209 222 239 283 288 291 306 305 297 285 269 245 163
140 140 140 139 142 148 150 148 153 158 159 160 161 165 152 162 177 178 214 284 275 271 243 211 209 209 194 192 192 227 213 138 84 341 352 340 317 319 315 323 323 133 153
127 132 127 127 130 129 129 136 143 148 154 156 158 156 157 155 167 160 154 140 360 318 287 187 185 187 190 172 162 166 119 93 75 52 34 10 3 4 0 348 349 45 101
121 119 115 117 118 117 119 131 142 148 148 150 158 152 151 152 146 133 125 121 86 51 6 17 153 155 131 121 144 144 127 114 86 66 55 37 29 22 12 18 10 48 70
139 131 126 124 124 123 121 121 128 129 135 133 134 126 128 134 135 137 125 110 96 91 61 70 85 94 93 44 76 125 126 109 96 81 74 70 66 58 49 46 31 35 55
155 144 137 130 128 128 128 121 116 119 119 120 123 123 132 131 129 125 120 114 99 80 68 80 80 69 39 24 44 77 98 93 101 99 98 100 79 77 77 69 59 54 56
150 140 136 130 127 127 119 122 120 116 116 115 116 121 130 126 120 121 101 92 92 89 72 65 81 75 45 35 42 55 88 77 64 48 45 44 57 61 71 75 68 55 49
133 127 129 125 125 122 122 122 119 113 108 106 103 102 112 108 100 96 96 104 103 95 86 78 77 71 40 38 52 62 102 73 57 51 58 65 53 44 58 72 69 64 48
111 115 125 128 123 125 126 125 125 119 114 111 104 98 99 100 100 99 93 88 92 96 93 87 81 77 45 36 55 62 115 98 70 60 54 63 63 41 61 81 87 90 82
111 113 117 115 113 112 118 120 117 109 106 105 101 96 92 101 105 96 86 89 95 95 92 81 76 79 65 50 57 57 115 105 95 83 71 62 59 46 50 72 67 68 58
112 108 103 102 99 99 101 101 97 89 87 89 89 84 88 102 101 96 98 100 101 100 101 99 86 73 69 66 62 65 79 96 98 93 80 61 57 56 52 64 69 79 279
115 113 108 98 92 95 102 103 99 93 90 88 86 82 79 89 102 105 109 111 119 118 120 117 112 88 78 71 76 80 75 61 77 90 92 89 73 65 59 55 31 7 345
116 118 115 109 102 99 105 114 115 114 110 105 101 99 88 78 87 105 116 126 133 133 133 136 118 99 96 89 83 86 79 71 72 79 98 110 112 99 86 68 12 349 341
109 112 117 115 114 111 109 118 123 124 122 120 119 117 109 98 79 60 75 74 50 71 89 93 96 100 100 90 95 103 107 113 115 117 125 135 151 189 59 93 107 348 32
117 114 115 118 114 104 117 127 129 133 130 130 133 134 119 104 84 62 40 53 53 35 29 63 89 122 114 64 96 133 115 114 117 135 169 176 152 140 135 114 99 81 57
121 128 130 129 131 144 139 123 130 137 140 143 147 142 129 126 122 109 82 51 61 60 55 60 81 73 95 109 95 90 93 90 96 110 150 146 135 129 121 111 104 97 78